ANA583 ROIG-RJTT

Flight info

Callsign ANA583
Flight time N/A
Altitude 39000
Route MJC Y57 SUKBO Y571 BILLY Y21 AKSEL
Aircraft B789/H-SDE1E2E3FGHIJ2J3J4J5M1RWXY/LB1D1

Departure

Time 2026-05-07 21:16
Airport New Ishigaki Airport (ROIG)

Arrival

Time N/A
Airport Tokyo Haneda International Airport (RJTT)
Time Latitude Longitude Altitude Speed Heading
2026-05-07 21:11 24.39221 124.24508 122 ft 0 kts 206°
2026-05-07 21:12 24.39217 124.24500 118 ft 3 kts 240°
2026-05-07 21:12 24.39180 124.24417 118 ft 21 kts 244°
2026-05-07 21:12 24.39101 124.24309 118 ft 15 kts 215°
2026-05-07 21:12 24.39063 124.24279 120 ft 0 kts 216°
2026-05-07 21:13 24.39042 124.24262 121 ft 7 kts 216°
2026-05-07 21:13 24.38998 124.24227 119 ft 8 kts 216°
2026-05-07 21:14 24.38926 124.24171 121 ft 13 kts 216°
2026-05-07 21:14 24.38873 124.24126 126 ft 6 kts 223°
2026-05-07 21:14 24.38850 124.24084 136 ft 7 kts 258°
2026-05-07 21:14 24.38876 124.24014 142 ft 11 kts 305°
2026-05-07 21:15 24.38932 124.23956 143 ft 7 kts 353°
2026-05-07 21:15 24.38968 124.23977 141 ft 22 kts 34°
2026-05-07 21:15 24.39342 124.24272 115 ft 110 kts 36°
2026-05-07 21:15 24.40172 124.24919 213 ft 171 kts 36°
2026-05-07 21:16 24.41077 124.25648 1032 ft 151 kts 44°
2026-05-07 21:16 24.41643 124.26675 1308 ft 172 kts 74°
2026-05-07 21:16 24.41997 124.27962 1790 ft 177 kts 75°
2026-05-07 21:16 24.42404 124.29297 2218 ft 193 kts 71°
2026-05-07 21:17 24.42911 124.30722 2643 ft 208 kts 70°
2026-05-07 21:17 24.43471 124.32247 3086 ft 223 kts 69°
2026-05-07 21:17 24.44062 124.33874 3545 ft 237 kts 69°
2026-05-07 21:17 24.44684 124.35598 4017 ft 249 kts 69°
2026-05-07 21:18 24.45332 124.37396 4613 ft 256 kts 69°
2026-05-07 21:18 24.45993 124.39229 5225 ft 260 kts 69°
2026-05-07 21:18 24.46664 124.41088 5856 ft 264 kts 69°
2026-05-07 21:18 24.47343 124.42975 6458 ft 268 kts 69°
2026-05-07 21:19 24.48034 124.44893 7027 ft 272 kts 69°
2026-05-07 21:19 24.48731 124.46830 7611 ft 274 kts 68°
2026-05-07 21:19 24.49436 124.48787 8205 ft 277 kts 68°
2026-05-07 21:19 24.50167 124.50819 8616 ft 294 kts 68°
2026-05-07 21:20 24.50926 124.52933 9308 ft 300 kts 68°
2026-05-07 21:20 24.51694 124.55070 10074 ft 303 kts 68°
2026-05-07 21:20 24.52483 124.57267 10552 ft 317 kts 68°
2026-05-07 21:20 24.53312 124.59575 10932 ft 333 kts 68°
2026-05-07 21:21 24.54181 124.61999 11309 ft 349 kts 68°
2026-05-07 21:21 24.55090 124.64533 11691 ft 364 kts 68°
2026-05-07 21:21 24.56036 124.67173 12063 ft 379 kts 68°
2026-05-07 21:21 24.56680 124.68973 12287 ft 389 kts 68°
2026-05-07 21:22 24.58027 124.72738 12708 ft 409 kts 68°
2026-05-07 21:22 24.58739 124.74729 12902 ft 419 kts 68°
2026-05-07 21:22 24.59818 124.77747 13349 ft 428 kts 68°
2026-05-07 21:22 24.60910 124.80807 13937 ft 433 kts 68°
2026-05-07 21:23 24.62017 124.83909 14462 ft 438 kts 68°
2026-05-07 21:23 24.63136 124.87046 14975 ft 443 kts 68°
2026-05-07 21:23 24.64267 124.90215 15493 ft 448 kts 68°
2026-05-07 21:23 24.65406 124.93418 15990 ft 452 kts 68°
2026-05-07 21:24 24.66554 124.96651 16507 ft 457 kts 68°
2026-05-07 21:24 24.67717 124.99921 16983 ft 461 kts 68°
2026-05-07 21:24 24.68889 125.03218 17464 ft 466 kts 68°
2026-05-07 21:24 24.70074 125.06557 17926 ft 470 kts 68°
2026-05-07 21:25 24.71264 125.09927 18375 ft 474 kts 69°
2026-05-07 21:25 24.72369 125.13360 18723 ft 478 kts 70°
2026-05-07 21:25 24.73543 125.16791 19145 ft 481 kts 69°
2026-05-07 21:25 24.74732 125.20243 19568 ft 484 kts 69°
2026-05-07 21:26 24.75887 125.23735 19965 ft 487 kts 70°
2026-05-07 21:26 24.77035 125.27253 20341 ft 490 kts 69°
2026-05-07 21:26 24.78436 125.30682 20655 ft 493 kts 59°
2026-05-07 21:26 24.80248 125.33893 21054 ft 495 kts 56°
2026-05-07 21:27 24.82147 125.37064 21457 ft 498 kts 55°
2026-05-07 21:27 24.84009 125.40291 21848 ft 501 kts 57°
2026-05-07 21:27 24.85818 125.43581 22225 ft 504 kts 57°
2026-05-07 21:27 24.87652 125.46875 22610 ft 506 kts 57°
2026-05-07 21:28 24.89541 125.50164 22963 ft 509 kts 56°
2026-05-07 21:28 24.91436 125.53471 23339 ft 512 kts 56°
2026-05-07 21:28 24.93314 125.56814 23680 ft 515 kts 57°
2026-05-07 21:28 24.95197 125.60181 23968 ft 517 kts 57°
2026-05-07 21:29 24.97102 125.63552 24285 ft 520 kts 56°
2026-05-07 21:29 24.99024 125.66938 24606 ft 522 kts 56°
2026-05-07 21:29 25.00945 125.70345 24897 ft 524 kts 57°
2026-05-07 21:29 25.02867 125.73772 25202 ft 527 kts 57°
2026-05-07 21:30 25.04801 125.77212 25515 ft 529 kts 56°
2026-05-07 21:30 25.06721 125.80621 25820 ft 531 kts 56°
2026-05-07 21:30 25.08673 125.84090 26118 ft 534 kts 56°
2026-05-07 21:30 25.10631 125.87580 26422 ft 536 kts 57°
2026-05-07 21:31 25.12595 125.91085 26719 ft 538 kts 57°
2026-05-07 21:31 25.14572 125.94608 27030 ft 541 kts 56°
2026-05-07 21:31 25.16554 125.98144 27322 ft 544 kts 56°
2026-05-07 21:31 25.18548 126.01707 27604 ft 547 kts 56°
2026-05-07 21:32 25.20549 126.05285 27893 ft 549 kts 57°
2026-05-07 21:32 25.22558 126.08880 28207 ft 552 kts 56°
2026-05-07 21:32 25.24579 126.12497 28504 ft 554 kts 56°
2026-05-07 21:32 25.26603 126.16124 28802 ft 557 kts 57°
2026-05-07 21:33 25.28643 126.19781 29115 ft 559 kts 57°
2026-05-07 21:33 25.30683 126.23445 29516 ft 559 kts 57°
2026-05-07 21:33 25.32720 126.27103 30011 ft 559 kts 56°
2026-05-07 21:33 25.34761 126.30770 30383 ft 560 kts 56°
2026-05-07 21:34 25.36797 126.34433 30804 ft 559 kts 56°
2026-05-07 21:34 25.38827 126.38087 31273 ft 557 kts 56°
2026-05-07 21:34 25.40853 126.41737 31754 ft 555 kts 56°
2026-05-07 21:34 25.42868 126.45371 32218 ft 554 kts 56°
2026-05-07 21:35 25.44879 126.48998 32721 ft 552 kts 56°
2026-05-07 21:35 25.46882 126.52616 33192 ft 550 kts 56°
2026-05-07 21:35 25.48876 126.56222 33720 ft 548 kts 56°
2026-05-07 21:35 25.50857 126.59824 34156 ft 548 kts 56°
2026-05-07 21:36 25.52830 126.63427 34555 ft 546 kts 56°
2026-05-07 21:36 25.54800 126.67017 34981 ft 545 kts 56°
2026-05-07 21:36 25.56769 126.70597 35421 ft 543 kts 56°
2026-05-07 21:36 25.58729 126.74169 35841 ft 542 kts 55°
2026-05-07 21:37 25.60679 126.77733 36263 ft 540 kts 55°
2026-05-07 21:37 25.62620 126.81282 36708 ft 538 kts 55°
2026-05-07 21:37 25.64557 126.84819 37134 ft 536 kts 54°
2026-05-07 21:37 25.66485 126.88345 37536 ft 535 kts 54°
2026-05-07 21:38 25.68412 126.91872 37899 ft 535 kts 54°
2026-05-07 21:38 25.70308 126.95348 38264 ft 534 kts 54°
2026-05-07 21:38 25.72226 126.98867 38642 ft 533 kts 53°
2026-05-07 21:38 25.74142 127.02382 38849 ft 533 kts 54°
2026-05-07 21:39 25.76082 127.05945 38973 ft 532 kts 54°
2026-05-07 21:39 25.77989 127.09451 38978 ft 529 kts 54°
2026-05-07 21:39 25.81774 127.16417 38980 ft 525 kts 54°
2026-05-07 21:40 25.85511 127.23302 38984 ft 524 kts 54°
2026-05-07 21:40 25.89258 127.30220 38983 ft 522 kts 54°
2026-05-07 21:41 25.92997 127.37131 38991 ft 523 kts 54°
2026-05-07 21:41 25.96745 127.44079 39005 ft 525 kts 54°
2026-05-07 21:42 26.00506 127.51054 39005 ft 526 kts 54°
2026-05-07 21:42 26.04252 127.58020 38999 ft 524 kts 54°
2026-05-07 21:43 26.08015 127.65020 38998 ft 523 kts 54°
2026-05-07 21:43 26.11718 127.71925 38991 ft 523 kts 54°
2026-05-07 21:44 26.15539 127.78817 39003 ft 521 kts 47°
2026-05-07 21:44 26.20644 127.84343 39017 ft 509 kts 34°
2026-05-07 21:45 26.26106 127.89409 39018 ft 512 kts 34°
2026-05-07 21:45 26.31554 127.94524 39005 ft 512 kts 34°
2026-05-07 21:46 26.37024 127.99621 38998 ft 512 kts 34°
2026-05-07 21:46 26.42461 128.04725 39000 ft 510 kts 34°
2026-05-07 21:47 26.47892 128.09808 38998 ft 510 kts 34°
2026-05-07 21:47 26.53346 128.14931 39016 ft 515 kts 34°
2026-05-07 21:48 26.58825 128.20084 39011 ft 514 kts 34°
2026-05-07 21:48 26.64282 128.25220 39009 ft 511 kts 34°
2026-05-07 21:49 26.69724 128.30347 39010 ft 514 kts 34°
2026-05-07 21:49 26.75197 128.35513 39005 ft 515 kts 34°
2026-05-07 21:50 26.80675 128.40690 38997 ft 516 kts 34°
2026-05-07 21:50 26.86158 128.45878 39032 ft 516 kts 34°
2026-05-07 21:51 26.91656 128.51086 39010 ft 518 kts 34°
2026-05-07 21:51 26.97150 128.56301 39008 ft 517 kts 34°
2026-05-07 21:52 27.02634 128.61509 39005 ft 516 kts 34°
2026-05-07 21:52 27.08121 128.66726 38998 ft 518 kts 34°
2026-05-07 21:53 27.13611 128.71959 38999 ft 517 kts 34°
2026-05-07 21:53 27.19093 128.77186 38996 ft 517 kts 34°
2026-05-07 21:54 27.24570 128.82416 39014 ft 519 kts 34°
2026-05-07 21:54 27.30082 128.87686 39018 ft 521 kts 34°
2026-05-07 21:55 27.35595 128.92968 39010 ft 520 kts 34°
2026-05-07 21:55 27.41092 128.98239 39017 ft 518 kts 34°
2026-05-07 21:56 27.46593 129.03518 39012 ft 521 kts 34°
2026-05-07 21:56 27.52113 129.08837 39018 ft 522 kts 35°
2026-05-07 21:57 27.56978 129.15031 39014 ft 530 kts 45°
2026-05-07 21:57 27.61673 129.21409 39013 ft 528 kts 44°
2026-05-07 21:58 27.66355 129.27779 39010 ft 527 kts 45°
2026-05-07 21:58 27.71017 129.34143 39008 ft 526 kts 45°
2026-05-07 21:59 27.75677 129.40497 39024 ft 527 kts 45°
2026-05-07 21:59 27.80360 129.46905 39024 ft 530 kts 45°
2026-05-07 22:00 27.85054 129.53332 39024 ft 530 kts 45°
2026-05-07 22:00 27.89744 129.59766 39026 ft 530 kts 45°
2026-05-07 22:01 27.94434 129.66208 39021 ft 531 kts 45°
2026-05-07 22:01 27.99092 129.72615 39020 ft 531 kts 45°
2026-05-07 22:02 28.03780 129.79075 39020 ft 531 kts 45°
2026-05-07 22:02 28.08474 129.85551 39012 ft 532 kts 45°
2026-05-07 22:03 28.13162 129.92032 38978 ft 532 kts 45°
2026-05-07 22:03 28.17844 129.98511 38973 ft 531 kts 45°
2026-05-07 22:04 28.22525 130.04999 38972 ft 532 kts 45°
2026-05-07 22:04 28.27207 130.11500 38974 ft 532 kts 45°
2026-05-07 22:05 28.31888 130.18008 38986 ft 533 kts 45°
2026-05-07 22:05 28.36572 130.24530 39003 ft 534 kts 45°
2026-05-07 22:06 28.41262 130.31073 39004 ft 533 kts 45°
2026-05-07 22:06 28.45178 130.36543 39003 ft 532 kts 45°
2026-05-07 22:07 28.49845 130.43070 38996 ft 531 kts 45°
2026-05-07 22:07 28.54509 130.49603 39008 ft 533 kts 45°
2026-05-07 22:08 28.59180 130.56157 39011 ft 533 kts 46°
2026-05-07 22:08 28.63849 130.62718 39012 ft 533 kts 46°
2026-05-07 22:09 28.68526 130.69299 39014 ft 536 kts 46°
2026-05-07 22:09 28.73183 130.75868 39012 ft 536 kts 46°
2026-05-07 22:10 28.77869 130.82482 39017 ft 536 kts 46°
2026-05-07 22:10 28.82558 130.89112 39000 ft 538 kts 46°
2026-05-07 22:11 28.87250 130.95760 39005 ft 536 kts 46°
2026-05-07 22:11 28.91924 131.02389 38993 ft 536 kts 46°
2026-05-07 22:12 28.96594 131.09026 39006 ft 538 kts 46°
2026-05-07 22:12 29.01283 131.15699 38999 ft 538 kts 46°
2026-05-07 22:13 29.05961 131.22369 38993 ft 537 kts 46°
2026-05-07 22:13 29.10627 131.29030 38993 ft 537 kts 46°
2026-05-07 22:14 29.15288 131.35696 38990 ft 536 kts 46°
2026-05-07 22:14 29.19935 131.42353 38990 ft 535 kts 46°
2026-05-07 22:15 29.24579 131.49015 39002 ft 537 kts 46°
2026-05-07 22:15 29.29249 131.55726 39002 ft 539 kts 46°
2026-05-07 22:16 29.33905 131.62430 38996 ft 537 kts 46°
2026-05-07 22:16 29.38557 131.69134 39003 ft 539 kts 46°
2026-05-07 22:17 29.43228 131.75881 39004 ft 541 kts 46°
2026-05-07 22:17 29.47897 131.82636 39002 ft 540 kts 47°
2026-05-07 22:18 29.54886 131.92765 39000 ft 541 kts 47°
2026-05-07 22:19 29.59553 131.99545 38994 ft 541 kts 47°
2026-05-07 22:19 29.64205 132.06314 38985 ft 538 kts 47°
2026-05-07 22:20 29.68963 132.12985 38997 ft 542 kts 46°
2026-05-07 22:20 29.73701 132.19724 38989 ft 541 kts 46°
2026-05-07 22:21 29.78486 132.26383 39011 ft 539 kts 46°
2026-05-07 22:21 29.83244 132.33109 38996 ft 543 kts 46°
2026-05-07 22:22 29.88027 132.39834 38997 ft 543 kts 46°
2026-05-07 22:22 29.92792 132.46567 38997 ft 541 kts 46°
2026-05-07 22:23 29.97563 132.53308 38994 ft 543 kts 46°
2026-05-07 22:23 30.02338 132.60071 38992 ft 544 kts 46°
2026-05-07 22:24 30.07073 132.66790 38987 ft 543 kts 46°
2026-05-07 22:24 30.11848 132.73572 38984 ft 545 kts 46°
2026-05-07 22:25 30.16621 132.80369 38983 ft 545 kts 46°
2026-05-07 22:25 30.21397 132.87175 38985 ft 546 kts 46°
2026-05-07 22:26 30.26175 132.94002 38985 ft 546 kts 46°
2026-05-07 22:26 30.30945 133.00825 38979 ft 545 kts 46°
2026-05-07 22:27 30.35706 133.07649 38983 ft 544 kts 46°
2026-05-07 22:27 30.40460 133.14474 38977 ft 544 kts 46°
2026-05-07 22:28 30.45206 133.21299 38982 ft 544 kts 46°
2026-05-07 22:28 30.49067 133.26862 38963 ft 542 kts 46°